LEMUR-2-YONGLIN (43045 NORAD) Tracking and Keplerian Element Data

This shows tracking and keplerian element data for the satellite.

Feedback or suggestion? Click here.




ElementValue
Catalog43045
NameLEMUR-2-YONGLIN
Epoch Orbit1069
Epoch Day45.26064663
Epoch Year2018
RAAN279.7378
Inclination51.639
Eccentricity0.000496
Argument of Perigee159.3356
Mean Anonmoly200.7829
Mean Motion15.38673143
Decay Rate5.05E-05
L11 43045U 17071J 18045.26064663 .00005050 00000-0 14023-3 0 9996
L22 43045 51.6390 279.7378 0004960 159.3356 200.7829 15.38673143 10691

Live tracking and technical data element details for LEMUR-2-YONGLIN (NORAD 43045). LEMUR-2-YONGLIN can be tracked NOW for your location showing map with azimuth and elevation plus other details from your city location.

Track the satellite on the map from your city or location and see movement details for azimuth, elevation, latitude, longitude, range, height, and movement on the map or in text.







IsCatalogInMostPopularTable: catalog: 43045, numindb: 141
Update: records affected: 1



GetName: 43045 LEMUR-2-YONGLIN

Hit Count: updated at: Tue, 18 Dec 2018 21:59:25 GMT